This is the latest recevied weather packets stored in our database for station/object K6JWN. If no packets are shown the sender has not sent any weather packets the latest 10 day(s).
| Time | Temp. | Humidity | Pressure | Rain* | Wind** | Luminosity | Snow |
|---|---|---|---|---|---|---|---|
| 1777966756 | 11.67° C | 84% | 1014.6 hPa | 1.02 mm | - | - | - |
| 1777966156 | 11.67° C | 84% | 1014.8 hPa | 0.76 mm | - | - | - |
| 1777965556 | 11.67° C | 84% | 1014.7 hPa | 0.76 mm | - | - | - |
| 1777964956 | 11.67° C | 84% | 1014.8 hPa | 0.51 mm | - | - | - |
| 1777964358 | 11.67° C | 84% | 1014.7 hPa | 0.76 mm | - | - | - |
| 1777963758 | 11.67° C | 84% | 1014.4 hPa | 0.76 mm | - | - | - |
| 1777963158 | 11.67° C | 84% | 1014.8 hPa | 1.02 mm | - | - | - |
| 1777962557 | 11.67° C | 84% | 1014.6 hPa | 1.02 mm | - | - | - |
| 1777961958 | 11.67° C | 83% | 1014.6 hPa | 1.02 mm | - | - | - |
| 1777961357 | 11.67° C | 83% | 1014 hPa | 1.02 mm | - | - | - |
| 1777960758 | 11.67° C | 83% | 1014.1 hPa | 0.76 mm | - | - | - |
| 1777960158 | 11.67° C | 83% | 1014.4 hPa | 0.51 mm | - | - | - |
| 1777959558 | 11.67° C | 83% | 1014.4 hPa | 0 mm | - | - | - |
| 1777958957 | 11.67° C | 83% | 1014.3 hPa | 0.25 mm | - | - | - |
| 1777958358 | 11.67° C | 83% | 1014.2 hPa | 0.51 mm | - | - | - |
| 1777957757 | 11.67° C | 83% | 1014.3 hPa | 0.51 mm | - | - | - |
| 1777957157 | 12.22° C | 82% | 1014.5 hPa | 0.76 mm | - | - | - |
| 1777956557 | 12.22° C | 82% | 1014.2 hPa | 1.02 mm | - | - | - |
| 1777955957 | 12.22° C | 82% | 1014.4 hPa | 1.27 mm | - | - | - |
| 1777955357 | 12.22° C | 81% | 1014.6 hPa | 1.52 mm | - | - | - |
| 1777954757 | 12.22° C | 80% | 1014.7 hPa | 1.78 mm | - | - | - |
| 1777954157 | 12.22° C | 78% | 1014.6 hPa | 2.03 mm | - | - | - |
| 1777953557 | 12.22° C | 77% | 1014.6 hPa | 1.78 mm | - | - | - |
| 1777952957 | 12.78° C | 76% | 1014.6 hPa | 1.52 mm | - | - | - |
| 1777952357 | 12.78° C | 75% | 1014.3 hPa | 1.27 mm | - | - | - |
* Rain latest hour (hover to see other rain measurements)
** Current wind speed in m/s (hover to see current wind gust speed)